Location: Cormont
(50.5693°N, 1.7416°E)
Time: 19:00:58
(UTC+00:00)

STARLINK-21 - Pass Details

Date: 21 October 2019
Orbit: 550 x 552 km, 53.0° (Epoch: 18 November)

Event Time Altitude Azimuth Distance (km) Brightness Sun altitude
Rises 17:52:16 0° 271° (W) 2,720 9.4 -10.6°
Reaches altitude 10° 17:54:31 10° 275° (W) 1,827 7.8 -11.0°
Maximum altitude 17:58:38 61° 356° (N) 627 3.9 -11.6°
Enters shadow 18:01:38 18° 74° (ENE) 1,400 5.1 -12.1°
